Regional Weather Roundup
Issued by NWS

Home | Current Version | Previous Version | Graphics & Text | Print | Product List | Glossary On
Versions: 1 2 3 4 5 6 7 8 9 10 11 12 13 14 15 16 17 18 19 20 21 22 23 24 25 26 27 28 29 30 31 32 33 34 35 36 37 38 39 40 41 42 43 44 45 46 47 48 49 50
000
ASUS43 KMKX 210011
RWRWI

WISCONSIN REGIONAL WEATHER ROUNDUP
NATIONAL WEATHER SERVICE MILWAUKEE/SULLIVAN WI
700 PM CDT MON APR 20 2015

NOTE: "FAIR" INDICATES FEW OR NO CLOUDS BELOW 12,000 FEET WITH NO
SIGNIFICANT WEATHER AND/OR OBSTRUCTIONS TO VISIBILITY.

WIZ001-002-006>008-014>016-023>028-210100-
NORTHWEST WISCONSIN

CITY           SKY/WX    TMP DP  RH WIND       PRES   REMARKS
SUPERIOR ARPT  CLOUDY    36  28  72 NW14G29   29.43R WCI  27
6HR MIN TEMP:  36; 6HR MAX TEMP:  40;

ASHLAND        CLOUDY    38  27  64 W14G25    29.38S WCI  30
6HR MIN TEMP:  38; 6HR MAX TEMP:  43;

HAYWARD        CLOUDY    38  26  62 VRB7      29.41R WCI  33
6HR MIN TEMP:  36; 6HR MAX TEMP:  40; 6HR PCP: TRACE;

SIREN          FLURRIES  38  26  63 W14       29.46R WCI  30
6HR MIN TEMP:  38; 6HR MAX TEMP:  40;

CUMBERLAND     CLOUDY    36  27  69 W15       29.44S WCI  26
RICE LAKE      CLOUDY    38  27  65 W8        29.47R WCI  32
6HR MIN TEMP:  37; 6HR MAX TEMP:  40;

CHETEK         CLOUDY    38  26  63 W12       29.46R WCI  30
6HR MIN TEMP:  37; 6HR MAX TEMP:  40;

LADYSMITH      CLOUDY    39  29  68 W16       29.44R WCI  30
6HR MIN TEMP:  38; 6HR MAX TEMP:  40;

EAU CLAIRE     CLOUDY    40  25  55 W18G24    29.48R WCI  31
6HR MIN TEMP:  39; 6HR MAX TEMP:  43;

MENOMONIE      CLOUDY    40  26  57 W14G22    29.49S WCI  33
6HR MIN TEMP:  40; 6HR MAX TEMP:  42;

NEW RICHMOND   CLOUDY    40  26  59 W15G21    29.48S WCI  31
6HR MIN TEMP:  38; 6HR MAX TEMP:  41;

OSCEOLA        CLOUDY    41  28  58 W13G20    29.51S
6HR MIN TEMP:  38; 6HR MAX TEMP:  41;

$$

WIZ003>005-009-010-017-018-210100-
NORTH CENTRAL WISCONSIN

CITY           SKY/WX    TMP DP  RH WIND       PRES   REMARKS
MANITOWISH WTR CLOUDY    35  30  83 W9G21     29.34R WCI  27
6HR MIN TEMP:  33; 6HR MAX TEMP:  36;

ARBOR VITAE    LGT SNOW  37  32  85 W7G21     29.35R WCI  31
6HR MIN TEMP:  37; 6HR MAX TEMP:  37;

WOODRUFF       LGT SNOW  37  32  85 W7G21     29.35R WCI  31
6HR MIN TEMP:  37; 6HR MAX TEMP:  37;

RHINELANDER    CLOUDY    36  29  75 W16G25    29.36R WCI  26
6HR MIN TEMP:  35; 6HR MAX TEMP:  38; 6HR PCP:  0.03;

EAGLE RIVER    CLOUDY    35  29  80 W14G20    29.33R WCI  26
6HR MIN TEMP:  33; 6HR MAX TEMP:  36; 6HR PCP:  0.01;

LAND O LAKES   CLOUDY    35  32  89 W14G21    29.33R WCI  26
6HR MIN TEMP:  34; 6HR MAX TEMP:  36;

PHILLIPS       CLOUDY    37  28  72 W7        29.37R WCI  31
6HR MIN TEMP:  35; 6HR MAX TEMP:  37;

TOMAHAWK       CLOUDY    36  29  77 CALM      29.38S
6HR MIN TEMP:  35; 6HR MAX TEMP:  38;

MEDFORD        CLOUDY    37  29  73 W12G17    29.41R WCI  29
6HR MIN TEMP:  35; 6HR MAX TEMP:  38;

MERRILL        CLOUDY    38  30  73 W13G25    29.39S WCI  30
6HR MIN TEMP:  36; 6HR MAX TEMP:  40;

$$

WIZ029-030-035-036-043>047-210100-
CENTRAL WISCONSIN

CITY           SKY/WX    TMP DP  RH WIND       PRES   REMARKS
WAUSAU         CLOUDY    38  29  70 W14G24    29.40R WCI  30
6HR MIN TEMP:  37; 6HR MAX TEMP:  41; 6HR PCP:  0.02;

MOSINEE        CLOUDY    37  30  75 W16       29.44R WCI  28
MARSHFIELD     CLOUDY    39  29  67 W13       29.44R WCI  31
6HR MIN TEMP:  38; 6HR MAX TEMP:  40;

STEVENS POINT  CLOUDY    37  28  71 W13G18    29.45R WCI  29
6HR MIN TEMP:  37; 6HR MAX TEMP:  39; 6HR PCP:  0.16;

WAUPACA        CLOUDY    42  31  65 W17       29.46R
6HR MIN TEMP:  42; 6HR MAX TEMP:  45;

WAUTOMA        CLOUDY    41  32  70 W12G18    29.49R
6HR MIN TEMP:  41; 6HR MAX TEMP:  44; 6HR PCP:  0.02;

WISC RAPIDS    CLOUDY    40  27  59 W9        29.47S WCI  34
6HR MIN TEMP:  39; 6HR MAX TEMP:  42; 6HR PCP:  0.01;

CAMP DOUGLAS   CLOUDY    41  32  70 W15G23    29.49S
$$

WIZ011>013-019>022-031-037>040-048>050-210100-
NORTHEAST WISCONSIN

CITY           SKY/WX    TMP DP  RH WIND       PRES   REMARKS
ANTIGO         CLOUDY    35  31  83 W13       29.38R WCI  27
SHAWANO        DRIZZLE   40  34  77 W12G23    29.42R WCI  34
6HR MIN TEMP:  40; 6HR MAX TEMP:  44; 6HR PCP:  0.01;

OCONTO         CLOUDY    41  35  77 W18G25    29.38R
6HR MIN TEMP:  39; 6HR MAX TEMP:  43; 6HR PCP:  0.01;

STURGEON BAY   CLOUDY    41  36  81 W15G21    29.39R
6HR MIN TEMP:  37; 6HR MAX TEMP:  43;

GREEN BAY      CLOUDY    42  33  70 W22G29    29.42R
6HR MIN TEMP:  42; 6HR MAX TEMP:  45; 6HR PCP:  0.01;

MANITOWOC      CLOUDY    43  35  73 W14G22    29.43R
6HR MIN TEMP:  42; 6HR MAX TEMP:  45;

APPLETON       CLOUDY    39  32  75 W17G26    29.45R WCI  30
CLINTONVILLE   CLOUDY    37  32  81 W16G29    29.43R WCI  28
OSHKOSH        CLOUDY    42  31  64 W14G24    29.46R
6HR MIN TEMP:  41; 6HR MAX TEMP:  44; 6HR PCP:  0.02;

$$

WIZ032>034-041-042-053>061-210100-
SOUTHWEST WISCONSIN

CITY           SKY/WX    TMP DP  RH WIND       PRES   REMARKS
LA CROSSE      CLOUDY    44  29  55 W20       29.53R
6HR MIN TEMP:  42; 6HR MAX TEMP:  47;

SPARTA         CLOUDY    41  28  58 W9G18     29.52S
6HR MIN TEMP:  40; 6HR MAX TEMP:  42;

VIROQUA        CLOUDY    40  30  68 W12G22    29.53R WCI  33
6HR MIN TEMP:  38; 6HR MAX TEMP:  42;

BOSCOBEL       CLOUDY    45  28  51 W17G31    29.57R
6HR MIN TEMP:  43; 6HR MAX TEMP:  47;

PRAIRIE DU CHI CLOUDY    44  28  54 W18G28    29.59R
6HR MIN TEMP:  42; 6HR MAX TEMP:  45;

PLATTEVILLE    CLOUDY    44  32  63 W24G35    29.58R
6HR MIN TEMP:  41; 6HR MAX TEMP:  45;

$$

WIZ056-057-062-063-064-067-068-210100-
SOUTH CENTRAL WISCONSIN

CITY           SKY/WX    TMP DP  RH WIND       PRES   REMARKS
REEDSBURG      CLOUDY    41  31  66 W10       29.51S
6HR MIN TEMP:  40; 6HR MAX TEMP:  42;

BARABOO/DELLS  CLOUDY    40  30  66 W7        29.51R
6HR MIN TEMP:  40; 6HR MAX TEMP:  42;

LONE ROCK      CLOUDY    44  30  57 W20G28    29.54R
6HR MIN TEMP:  42; 6HR MAX TEMP:  44;

MINERAL POINT  CLOUDY    43  32  65 W18G30    29.55R
MADISON        CLOUDY    43  29  57 W9G20     29.52R
6HR MIN TEMP:  42; 6HR MAX TEMP:  44; 6HR PCP: TRACE;

MIDDLETON      CLOUDY    43  31  60 W10       29.53S
6HR MIN TEMP:  43; 6HR MAX TEMP:  46;

WATERTOWN      CLOUDY    42  32  67 W15G22    29.51R
6HR MIN TEMP:  42; 6HR MAX TEMP:  44;

MONROE         CLOUDY    43  32  65 W18G29    29.56R
JANESVILLE     CLOUDY    45  30  57 W18G24    29.55R
$$

WIZ051-052-058>065-066-070>072-210100-
SOUTHEAST WISCONSIN

CITY           SKY/WX    TMP DP  RH WIND       PRES   REMARKS
MILWAUKEE      CLOUDY    44  30  57 W17G25    29.51R
6HR MIN TEMP:  44; 6HR MAX TEMP:  47; 6HR PCP: TRACE;

WAUKESHA       NOT AVBL
MILWAUKEE/TIMM CLOUDY    43  30  61 W12G24    29.51R
RACINE         CLOUDY    44  32  62 W10G26    29.53R
6HR MIN TEMP:  44; 6HR MAX TEMP:  47; 6HR PCP: TRACE;

BURLINGTON     CLOUDY    42  31  67 W15G23    29.53R
6HR MIN TEMP:  41; 6HR MAX TEMP:  43;

KENOSHA        CLOUDY    44  33  65 W20G33    29.52R
6HR MIN TEMP:  44; 6HR MAX TEMP:  47; 6HR PCP: TRACE;

FOND DU LAC    CLOUDY    42  32  67 W13G23    29.48R
6HR MIN TEMP:  42; 6HR MAX TEMP:  46; 6HR PCP:  0.01;

SHEBOYGAN      CLOUDY    42  33  70 W22G29    29.45R
6HR MIN TEMP:  42; 6HR MAX TEMP:  45; 6HR PCP:  0.01;

WEST BEND      CLOUDY    41  30  65 W15G24    29.48R
JUNEAU         CLOUDY    40  32  71 W14       29.51R WCI  33
6HR MIN TEMP:  40; 6HR MAX TEMP:  43;

$$

LSZ147-162-210100-
LAKE SUPERIOR

STATION/POSITION TIME  TEMP    WIND        PRES    WAVE
                       AIR SEA DIR/SP/G            HT/PER
                 (UTC) (F)     (DEG/KT/KT) (MB)    (FT/S)
DEVILS ISLAND    0000   36     270/ 23/ 27  994.5R
PORT WING        2300   38     260/ 15/ 21  995.3S
SAXON HARBOR     2340   39     270/  7/ 17  994.9R
$$

LMZ867-665-643>646-210100-
LAKE MICHIGAN

STATION/POSITION TIME  TEMP    WIND        PRES    WAVE
                       AIR SEA DIR/SP/G            HT/PER
                 (UTC) (F)     (DEG/KT/KT) (MB)    (FT/S)


USA.gov is the U.S. government's official web portal to all federal, state and local government web resources and services.